Location: Newark
(46.7000°N, 60.6000°W)
Time: 19:15:26
(UTC+00:00)

N. Korean satellite - Pass Details

Date: 27 September 2020
Orbit: 452 x 505 km, 97.2° (Epoch: 28 October)

Event Time Altitude Azimuth Distance (km) Brightness Sun altitude
Rises 09:08:02 0° 20° (NNE) 2,593 10.7 -9.1°
Reaches altitude 10° 09:10:17 10° 30° (NNE) 1,696 9.9 -8.7°
Maximum altitude 09:13:37 34° 96° (E) 829 8.6 -8.2°
Drops below altitude 10° 09:16:53 10° 163° (SSE) 1,654 9.4 -7.6°
Sets 09:19:03 0° 173° (S) 2,518 10.2 -7.2°
